Location: Unspecified
(41.1637°N, 24.2901°E)
Time: 12:27:41
(UTC+01:00)

ISS - Pass Details

Date: 26 November 2021
Orbit: 417 x 423 km, 51.6° (Epoch: 29 November)

Event Time Altitude Azimuth Distance (km) Brightness Sun altitude
Rises 17:50:38 0° 294° (WNW) 2,378 1.0 -21.1°
Reaches altitude 10° 17:53:30 10° 321° (NW) 1,513 -0.6 -21.6°
Enters shadow 17:54:50 14° 344° (NNW) 1,303 -1.2 -21.9°
